Timeline UpdatesTrip UpdatesNews PostsPvt Posts♥♥Travel TipsAdmin PostsConv PostsFollowed PostsChat RequestsBlog PostsPNR Posts

Disclaimer
Search
 
 
Tue Oct 21, 2014 09:16:54 ISTHomeTrainsΣChainsAtlasPNRForumGalleryNewsFAQTripsMembersLoginFeedback
No Recent News for this Train
Other Trains in the News **new
Latest...
.
Wed Jul 25, 2012 (05:18PM)
⇐ Return Journey: Train# 57274

57273/Hubli - Tirupati Passenger

Time-Table HAS CHANGED.
Oct 16 (10:49PM)
Change Departure Station:
Change Arrival Station:
Post a Train Travel TipPost a Train Travel Tip **new
Post a Comment/Question/Picture/VideoPost a Comment/Question/Picture/Video
Pantry/Catering
✕ NO Pantry Car
✕ NO Catering
RSA - Rake Sharing
57257/58 TPTY-COA Passenger
Rake/Coach Composition
LOCO-SLR-GS-GS-GS-GS-GS-GS-GS-S2-S1-GS-GS-GS-GS-GS-SLR
Loco
UBL - GTL --> GTL WDM 2B GTL-TPTY --> WAP/WAM
News    PNR    Forum    Time-Table    Availability    Fare Chart    Map    Arr/Dep History    Trips    Gallery    ΣChains    X/O    Timeline    
Travel Time: 9h 5m    39 halts    Distance: 319 km    Avg Speed: 35 km/hr
Type: Passenger
Zone: SCR/South Central
Departs @ 12:40 (Avg 29m late)
Platform# ???
SMTWTFS
Guntakal Junction/GTL 
Arrives @ 21:45 (Avg 37m late)
Platform# 5
SMTWTFS
Tirupati Main/TPTY 

39 halts. 42 intermediate Stations between Guntakal Junction and Tirupati Main

Show ALL intermediate Stations  Show Old Time-Table

#TrkCodeStation NameX/OArrivesAvgDepartsAvgHaltPFDay#KmSpeedElevZoneAddress
1|==|UBLHubli Junction (5)  -06:00+021-257.851640mSWRHubli - 580020, Karnataka
2|--|SVHESisvinhalli  06:27-06:28-1m--1-235.0121594mSWRState Highway 28, Karnataka
3|--|NGRAnnigeri (2)  06:34+1106:35+121m--1-222.971634mSWRDist. Dharwad, Karnataka
4|--|LKTHulkoti  06:44+1706:45+171m--1-212.329654mSWRNational Highway 63, Karnataka
5|--|GDGGadag Junction (3)X  07:13 07:10+907:15+122 5m--1-200.042655mSWRGadag GDG jn pnts. UBL/BAY/SUR, Karnataka
6|--|BNPBhanapurX  08:05 08:19+608:10 08:20+125 1m--1-155.183561mSWRNational Highway 63, Karnataka
7|--|KBLKoppal (1)  08:23 08:29+1608:25 08:30+192 1m11-142.674526mSWRKoppal, Karnataka
8|--|GINGinigera  08:38 08:39+2108:40+222 1m--1-131.546511mSWRGinigera, Karnataka
9|--|MRBMunirabad (1)  08:53 08:54+2408:55+262 1m11-120.820470mSWRMunirabad, Karnataka
10%=-|HPTHospet Junction (3)  09:13+1909:15+222m11-114.750472mSWRHospet, Karnataka
11%==%TNGLToranagallu (3)  09:54+2309:55+231m--1-82.538473mSWRToranagallu, Karnataka
12%==%DAJDurojiX  10:00 10:04+2410:05+225 1m--1-76.827467mSWRBellary, Karnataka
13%==%BAYBellary Junction (4)  11:05+511:10+75m31-50.047458mSWRBellary-583101, Karnataka
14%==%HDDHaddinagundu  11:18+1511:19+151m--1-43.750433mSCRNational Highway 63, Karnataka
15%==%HGIHagari  11:27+1611:28+161m--1-37.165413mSCRNational Highway 63, Karnataka
16%==%VPVirapur  11:37+1711:38+181m--1-27.350427mSCRAnantapur, Andhra Pradesh
17%==%TKBNTsakibanda  11:44-11:45-1m--1-22.357431mSCRRayalaseema Region, Andhra Pradesh
18%==%BNLBevinahalu  11:49+2011:50+201m--1-18.558428mSCRRayalaseema Region, Andhra Pradesh
19%==%BLLBantanahalX  11:57+2611:58+271m--1-11.826445mSCRRayalaseema Region, Andhra Pradesh
20|-=%GTLGuntakal Junction (6)»12:25+2312:40+2915m--10.028453mSCRGuntakal. Tel: 08552-227131/32, Andhra Pradesh
21/==/TIMTimmanacherlaX  12:47+4412:48+461m--13.277434mSCRGuntakal, Andhra Pradesh
22/==/NKDONakkanadoddi  12:55+5012:56+511m--112.258391mSCRRayalaseema Region, Andhra Pradesh
23|--|PLUPatakottacheruvu  13:01+5213:02+521m--117.058381mSCRRayalaseema Region, Andhra Pradesh
24/==/GYGooty Junction (2)X  13:14+1:0013:15+1:081m--128.565370mSCRNH 7 Anantapur District, Andhra Pradesh
25/==/JKOJakkalacheruvuX  13:26+1:1513:27+1:151m--140.478334mSCRRayalaseema Region, Andhra Pradesh
26/==/RLORayala Cheruvu (2)  13:36+1:1713:37+1:171m--152.138292mSCRRayalacheruvu, Andhra Pradesh
27/==/VMLVemulapadu  13:46+1:1613:47+1:161m--157.954269mSCRSH 57, Andhra Pradesh
28/==/JURJutturu  13:54+1:1913:55+1:191m--164.254260mSCRTadipatri, Andhra Pradesh
29/==/KMQAKomali  14:02+1:2314:03+1:231m--170.534246mSCRPappuru Rd, Andhra Pradesh
30/==/TUTadipatri (3)14:14+1:0814:15+1:091m--176.668243mSCRAnantapuram Dist, Andhra Pradesh
31/==/CLPEChallavaripalli  14:21+1:1914:22+1:191m--183.552229mSCRYallanur Rd, Andhra Pradesh
32/==/VRNVanganur  14:29+1:2614:30+1:261m--189.571222mSCRRayalaseema Region, Andhra Pradesh
33/==/RLLRegadipalli  14:36+1:2514:37+1:251m--196.618223mSCRKadapa (YSR District), Andhra Pradesh
34/==/KDPKondapuram (2)X  15:04+1:1215:05+1:231m--1104.761214mSCRKadapa (YSR District), Andhra Pradesh
35/==/MUMMangapatnam  15:14+1:2515:15+1:261m--1113.862218mSCRKadapa (YSR District), Andhra Pradesh
36/==/MOOMuddanuru (3)  15:29+1:2715:30+1:291m--1128.357194mSCRKadapa (YSR District), Andhra Pradesh
37/==/KMHKalamalia  15:39+1:3215:40+1:321m--1136.965178mSCRKadapa (YSR District), Andhra Pradesh
38/==/YAYerraguntla (2)X  15:47+1:3215:48+1:321m--1144.557171mSCRKadapa / Cuddapah (YSR District), Andhra Pradesh
39/==/YGDYerragudipad  15:57+1:3615:58+1:371m--1153.038149mSCRKadapa (YSR District), Andhra Pradesh
40/==/KKMKamalapuram (2)  16:09+1:3616:10+1:371m--1160.070141mSCRKadapa (YSR District), Andhra Pradesh
41/==/GPYGangayapalle  16:16+1:3916:17+1:391m--1166.970137mSCRKadapa (YSR District), Andhra Pradesh
42/==/KPUKrishnapuramX  16:25+1:4216:26+1:421m--1176.212133mSCRKadapa (YSR District), Andhra Pradesh
43/==/HXKadapa (3)X  17:04+5317:05+591m11183.660146mSCRCuddapah, Andhra Pradesh
44/==/KNLPKanamalo Palle  17:16+1:2717:17+1:271m--1194.648188mSCRKadapa (YSR District), Andhra Pradesh
45/==/BKPTBhakarapet  17:24+1:2817:25+1:281m--1200.249145mSCRKadapa (YSR District), Andhra Pradesh
46/==/VNMOntimitta (2)  17:32+1:2917:33+1:291m--1205.972134mSCRKadapa (YSR District), Andhra Pradesh
47/==/MMPLMantapampalle (1)  17:42+1:3117:43+1:311m11216.828154mSCRKadapa (YSR District), Andhra Pradesh
48/==/NRENandalurX  17:59+1:2618:00+1:291m--1224.136143mSCRRayalaseema Region, Andhra Pradesh
49/==/HAQHastavaram  18:09+1:3118:10+1:311m--1229.638143mSCRKadapa (YSR District), Andhra Pradesh
50/==/RJPRazampeta (2)  18:18+1:0818:19+1:091m--1234.761144mSCRKadapa (YSR District), Andhra Pradesh
51/==/PMTPullampet  18:28+1:2418:29+1:241m--1243.846159mSCRKadapa (YSR District), Andhra Pradesh
52/==/RPLReddipalle  18:34-18:35-1m--1247.663175mSCRDr. Y.S. Rajasekhar Reddy, Andhra Pradesh
53/==/OBVPObulavaripalli (2)  18:42+1:2518:43+1:251m--1255.059191mSCRRayalaseema Region, Andhra Pradesh
54/==/ANEAnantarajupet  18:49+1:2618:50+1:271m--1260.963197mSCRRayalaseema Region, Andhra Pradesh
55/==/KOUKoduru (2)  18:57+1:2518:58+1:261m--1268.262215mSCRKadapa (YSR District), Andhra Pradesh
56/==/SFSettigunta  19:07+1:3119:08+1:311m--1277.539214mSCRCoastal Andhra Region, Andhra Pradesh
57/==/BLPEBalapalleX  19:19+1:2919:20+1:301m--1284.774246mSCRGangurajupodu, Andhra Pradesh
58/==/MRMMamanduruX  19:28+1:3419:29+1:371m--1294.613177mSCRChittoor, Andhra Pradesh
59/==/RURenigunta Junction (5)XO  20:15 20:35+4820:20 21:30+365 55m--1309.140113mSCRChittoor District, Andhra Pradesh
60/==/TPTYTirupati Main (5)•  21:00 21:45+37-51319.0-150mSCRChittoor Distt, Andhra Pradesh
Scroll to Top
Scroll to Bottom